Regional Weather Roundup
Issued by NWS

Home | Current Version | Previous Version | Text Only | Print | Product List | Glossary On
Versions: 1 2 3 4 5 6 7 8 9 10 11 12 13 14 15 16 17 18 19 20 21 22 23 24 25 26 27 28 29 30 31 32 33 34 35 36 37 38 39 40 41 42 43 44 45 46 47 48 49 50
000
ASUS43 KDTX 221010
RWRMI
MICHIGAN HOURLY REGIONAL WEATHER ROUNDUP
NATIONAL WEATHER SERVICE DETROIT/PONTIAC MI
600 AM EDT TUE JUL 22 2014

NOTE: "FAIR" INDICATES FEW OR NO CLOUDS BELOW 12,000 FEET WITH NO
SIGNIFICANT WEATHER AND/OR OBSTRUCTION TO VISIBILITY.

MIZ047>049-052>055-059>063-066>070-074>076-081>083-221100-
SOUTHEAST LOWER MICHIGAN

CITY           SKY/WX    TMP DP  RH WIND       PRES   REMARKS
ADRIAN         CLEAR     61  58  90 CALM      30.12S
ALMA           CLEAR     64  62  91 S5        30.08R
ANN ARBOR      FOG       56  54  93 CALM      30.11S VSB 1/2
BAD AXE        CLEAR     64  56  75 S5        30.09F
CARO           CLEAR     61  60  99 CALM      30.09S
DETROIT CITY   CLEAR     67  59  75 CALM      30.11S
DETROIT        PTCLDY    66  62  87 CALM      30.11F FOG
FLINT          CLEAR     66  59  78 S6        30.10R
GROSSE ILE     CLEAR     68  64  88 CALM      30.10S
HILLSDALE      CLEAR     63  63 100 CALM      30.12S FOG
HOWELL         CLEAR     65  58  75 S5        30.10S

CITY           SKY/WX    TMP DP  RH WIND       PRES   REMARKS
JACKSON        CLEAR     63  60  90 CALM      30.11S
LAMBERTVILLE   CLEAR     61  59  94 CALM      30.12S
LANSING        CLEAR     66  61  84 S7        30.09S
LAPEER         FAIR      58  56  94 CALM      30.11R
MASON          CLEAR     64  59  83 S7        30.10S
MONROE         CLEAR     61  59  94 CALM      30.10S
MT. CLEMENS    CLEAR     61  61  98 CALM      30.10S
PONTIAC        CLEAR     65  59  81 CALM      30.11S
PORT HOPE        N/A     68  56  65 SW5       30.06S
PORT HURON     CLEAR     55  55 100 CALM      30.12R FOG
TRI CITIES     CLEAR     67  60  78 S7        30.08S
TROY           CLEAR     65  59  79 CALM      30.12R HAZE
SAGINAW HB     CLEAR     64  61  88 S3        30.07S
$$
MIZ043>046-050>051-056>058-064>065-071>073-077>080-221100-
SOUTHWEST LOWER MICHIGAN

CITY           SKY/WX    TMP DP  RH WIND       PRES   REMARKS
BATTLE CREEK   CLEAR     66  62  87 S3        30.10S
BENTON HARBOR  CLEAR     65  62  90 SE5       30.06F
BIG RAPIDS     FOG       59  59 100 CALM      30.05S VSB 1
COLDWATER      CLEAR     67  63  86 SE5       30.10F
FREMONT        FAIR      64  64  99 CALM      30.05R
HOLLAND        CLEAR     66  63  90 S6        30.06F
GRAND RAPIDS   CLEAR     67  64  90 S7        30.08R
IONIA          FAIR      66  63  90 S6        30.08R
KALAMAZOO      CLEAR     67  64  90 SE5       30.09S
LUDINGTON      CLEAR     69  65  84 S7        30.03S
MARSHALL       CLEAR     64  61  91 CALM      30.09F
MOUNT PLEASANT CLEAR     66  64  91 CALM      30.06S
MUSKEGON       CLEAR     70  65  84 S6        30.05R
SOUTH HAVEN    CLEAR     63  63 100 CALM      30.06S
$$
MIZ016>042-221100-
NORTHERN LOWER MICHIGAN

CITY           SKY/WX    TMP DP  RH WIND       PRES   REMARKS
ALPENA         CLOUDY    67  63  87 SW3       30.04S
BEAVER ISLAND  CLEAR     69  64  82 S8        29.98R
BELLAIRE       CLEAR     63  61  94 CALM      30.00F FOG
CADILLAC       CLEAR     66  64  91 S7        30.05S
CHARLEVOIX     CLEAR     69  63  82 S7        30.00F
FRANKFORT      CLEAR     74  64  71 S9        30.00F
GAYLORD        CLEAR     73  62  68 S9        30.04S
GRAYLING       CLEAR     69  66  90 S6        30.05F
HARBOR SPRINGS CLEAR     69  62  79 CALM      29.99F
HOUGHTON LAKE  CLEAR     66  63  90 S7        30.07R
MANISTEE       CLEAR     64  59  82 CALM      30.02F
OSCODA         CLEAR     64  63  94 S5        30.05S FOG
PELLSTON       CLEAR     64  61  90 S3        29.99F
ROGERS CITY    CLOUDY    69  64  85 S7        30.04R
TRAVERSE CITY  CLEAR     72  62  71 S6        29.99S
$$
MIZ007>008-015-221100-
EASTERN UPPER MICHIGAN

CITY           SKY/WX    TMP DP  RH WIND       PRES   REMARKS
KINROSS        CLOUDY    64  63  94 SE9       29.99F
MACKINAC ISLAN MOCLDY    67  63  85 S7        29.99S
NEWBERRY       CLEAR     64  60  87 S13G23    29.96R
S. S. MARIE    CLOUDY    64  60  87 SE5       29.97F
MUNISING         N/A     71  62  73 S8        29.89R
$$
MIZ004>006-011>014-085-221100-
CENTRAL UPPER MICHIGAN

CITY           SKY/WX    TMP DP  RH WIND       PRES   REMARKS
MANISTIQUE     PTCLDY    61  60  97 SW7       29.95R FOG
ESCANABA       MOCLDY    66  63  88 S8        29.90F
MENOMINEE      MOCLDY    72  66  83 SW12G18   29.90F
SAWYER-GWINN   MOCLDY    68  65  89 SW8       29.91R
$$
MIZ001>003-009>011-084-221100-
WESTERN UPPER MICHIGAN

CITY           SKY/WX    TMP DP  RH WIND       PRES   REMARKS
IRON MOUNTAIN  CLOUDY    71  67  87 VRB5      29.89R
HOUGHTON       LGT RAIN  68  64  87 W15       29.84F
COPPER HARBOR    N/A     76  65  68 NW12G24   29.83
IRONWOOD       CLOUDY    70  63  78 S7G24     29.71F
$$

ABBREVIATIONS USED IN REMARKS
   TC - TEMPERATURE IN CELSIUS
  WCI - WIND CHILL INDEX
   HX - HEAT INDEX
  VSB - VISIBILITY



USA.gov is the U.S. government's official web portal to all federal, state and local government web resources and services.